SL-14 DEB, 45339

Orbit data source: Space-Track

SL-14 DEB, 45339 is space debris in LEO originally from a launch on Thu, 15 Aug 1991 UTC launched from the Plesetsk Missile And Space Complex (PKMTR). Debris objects in space refer to the collection of defunct objects orbiting the Earth. Examples of debris include non-operational satellites, rocket bodies, and fragments generated from explosions, collisions, or faulty payload assembly.

Loading next visibility...
SL-14 DEB details
Identifier
45339, 1991-056CD
Orbit
LEO
Last TLE update8 hours ago
Origin
Flag of CISRosgidromet (CIS)
ManufacturerUnknown
MissionSpacecraft
Bus & MotorUnknown
MassUnknown
Launch date (UTC)
1991-08-15 (33 years ago)
Launch vehicleUnknown
Launch site
Plesetsk Missile And Space Complex (PKMTR)
Object type
Payload
Rocket body
Debris
Shape & HBRUnknown
Radar Cross SectionSmall (<0.1 m²)

Expand to show TLE details & history

TLE from 8 hours ago
0 SL-14 DEB
1 45339U 91056CD  24361.27427656  .00014021  00000-0  16473-1 0  9990
2 45339  82.5032  77.4294 0096775  71.3845 289.7784 13.66027460237339
Epoch: 2024-12-26T06:34Z
Definitive object data (Epoch: 2024-12-26T06:34:57.494Z)
Latitude-0.00008°
Longitude-116.56619°
Altitude993.148 km
Speed7.367 km/s
True Right ascension05h 09m 43s
True Declination0° 00' 00"
Sunlit
Object was in full shadow at TLE epoch
Visualization TLE readout
Latitude-76.25062°
Longitude-149.18577°
Altitude1,102.322 km
Speed7.27 km/s
Apparent Right ascension02h 31m 17s
Apparent Declination-59° 30' 23"
Sunlit
Object is in daylight
Visualization observer readout
Local Sidereal Time14:21:08
Azimuth183.83° SSW
Elevation-70.345°
Doppler factor1
Orbital elements
Apogee altitude1,082.554 km
Perigee altitude939.537 km
Semi-major axis7,389.183 km
Eccentricity0.0096775
Inclination82.5032°
RAAN77.4294°
Arg. of periapsis71.3845°
True anomaly288.73063°
Mean anomaly289.7784°
Eccentric anomaly289.25494°
Mean motion3.41703 °/min
BSTAR0.016473
Orbital period105.35 mins
Loading maneuver chart data...
Loading historical data...
Loading historical data...
Loading historical data...
Loading historical data...
Loading historical data...
Loading historical data...
Loading historical data...

SL-14 DEB Visibility forecast

Observer location: undefined°, undefined

Span
Click to sort rows by Start time (UTC) header in descending order
Start Az.
Max El. time (UTC)
Max El. Az.
Max El.
End time (UTC)
End Az.
9 mins2024-12-26 15:57:12.244Z22.994° NE2024-12-26 16:01:12.244Z65.058° ENE20.299°2024-12-26 16:06:12.244Z118.56° SE
10 mins2024-12-26 17:44:12.244Z336.543° NNW2024-12-26 17:48:12.244Z267.291° W39.296°2024-12-26 17:54:12.244Z192.376° SSW
10 mins2024-12-27 05:33:12.244Z161.061° S2024-12-27 05:37:12.244Z105.479° ESE37.683°2024-12-27 05:43:12.244Z18.628° NNE
7 mins2024-12-27 07:21:12.244Z253.09° W2024-12-27 07:24:12.244Z290.034° WNW20.547°2024-12-27 07:28:12.244Z335.269° NNW
|